sat.trackr.live / text

‹ back to catalog

FLOCK 4G-10

NORAD 62670 · 2025-009BP

PAYLOAD ACTIVE UNKNOWN

§ Identity

Operator
Country
US
Launch date
2025-01-14
Launch site
AFWTR
Launch vehicle
Mass (kg)
RCS (m²)

Purposes: earth_obs

External: N2YO · Heavens-Above · Gunter

§ Orbital elements

Epoch: 2026-05-25T04:42:10.609632Z

Period
94.19 min
Inclination
97.3924°
Eccentricity
0.0005678
Mean motion
15.28746814 rev/d
Perigee alt
475.7 km
Apogee alt
483.5 km
Semi-major
6,857.7 km
B*
3.8701e-4
RAAN
226.4878°
Arg perigee
69.5620°
Mean anomaly
290.6229°
Rev number
13,302

§ Raw data

FLOCK 4G-101 62670U 25009BP  26145.19595613  .00010749  00000+0  38701-3 0  99962 62670  97.3924 226.4878 0005678  69.5620 290.6229 15.28746814133023

JSON: /api/v1/satellites/62670 · /tle

For live sub-satellite position, see the globe view (requires WebGL).

§ Visibility from observer

Set your observer location to see the next 7 days of passes ≥ 10°. The values pass through the URL so the page stays shareable.

No JS? Fill the form by hand. The geolocation button needs JavaScript.